TimeMDT,TemperatureF,Dew PointF,Humidity,Sea Level PressureIn,VisibilityMPH,Wind Direction,Wind SpeedMPH,Gust SpeedMPH,PrecipitationIn,Events,Conditions,WindDirDegrees,DateUTC
12:53 AM,23.0,19.0,85,30.30,8.0,WNW,3.5,-,N/A,,Overcast,300,2013-03-25 06:53:00
1:53 AM,23.0,19.9,88,30.29,3.0,Calm,Calm,-,0.00,Snow,Light Snow,0,2013-03-25 07:53:00
2:07 AM,21.2,19.4,93,30.22,3.0,East,8.1,-,0.00,Snow,Light Snow,100,2013-03-25 08:07:00
2:10 AM,21.2,19.4,93,30.21,2.5,East,6.9,-,0.00,Snow,Light Snow,100,2013-03-25 08:10:00
2:20 AM,21.2,17.6,86,30.21,2.5,East,6.9,-,0.00,Snow,Light Snow,100,2013-03-25 08:20:00
2:48 AM,19.4,17.6,93,30.21,4.0,East,6.9,-,0.00,Snow,Light Snow,100,2013-03-25 08:48:00
2:49 AM,19.9,18.0,92,30.30,4.0,East,6.9,-,0.00,Snow,Light Snow,100,2013-03-25 08:49:00
3:53 AM,19.9,17.1,89,30.30,4.0,ESE,5.8,-,0.01,Snow,Light Snow,110,2013-03-25 09:53:00
4:44 AM,19.4,17.6,93,30.21,5.0,Calm,Calm,-,0.00,,Overcast,0,2013-03-25 10:44:00
4:53 AM,19.4,17.6,93,30.21,4.0,Calm,Calm,-,N/A,,Overcast,0,2013-03-25 10:53:00
5:53 AM,18.0,16.0,92,30.33,8.0,ESE,3.5,-,N/A,,Overcast,120,2013-03-25 11:53:00
6:14 AM,17.6,15.8,93,30.22,6.0,Calm,Calm,-,N/A,,Overcast,0,2013-03-25 12:14:00
6:53 AM,18.0,14.0,84,30.35,7.0,South,3.5,-,N/A,,Overcast,180,2013-03-25 12:53:00
7:07 AM,17.6,14.0,86,30.23,9.0,Calm,Calm,-,N/A,,Scattered Clouds,0,2013-03-25 13:07:00
7:53 AM,18.0,15.1,88,30.38,8.0,Calm,Calm,-,N/A,,Scattered Clouds,0,2013-03-25 13:53:00
8:53 AM,19.0,12.0,74,30.39,10.0,Calm,Calm,-,N/A,,Scattered Clouds,0,2013-03-25 14:53:00
9:53 AM,21.9,16.0,78,30.39,10.0,Calm,Calm,-,N/A,,Clear,0,2013-03-25 15:53:00
10:53 AM,26.1,17.1,69,30.38,10.0,SSE,5.8,-,N/A,,Partly Cloudy,150,2013-03-25 16:53:00
11:53 AM,30.0,16.0,56,30.36,8.0,Variable,3.5,-,N/A,,Clear,0,2013-03-25 17:53:00
12:00 PM,28.4,15.8,59,30.26,10.0,Calm,Calm,-,N/A,,Partly Cloudy,0,2013-03-25 18:00:00
12:53 PM,33.1,14.0,46,30.33,8.0,East,8.1,-,N/A,,Clear,80,2013-03-25 18:53:00
1:53 PM,36.0,12.0,37,30.30,10.0,ESE,8.1,-,N/A,,Clear,110,2013-03-25 19:53:00
2:11 PM,35.6,12.2,38,30.22,8.0,Calm,Calm,-,N/A,,Partly Cloudy,0,2013-03-25 20:11:00
2:53 PM,36.0,10.9,36,30.30,10.0,ESE,8.1,-,N/A,,Clear,110,2013-03-25 20:53:00
3:53 PM,37.0,10.9,34,30.28,10.0,Calm,Calm,-,N/A,,Clear,0,2013-03-25 21:53:00
4:53 PM,37.9,12.9,36,30.27,10.0,SSE,13.8,17.3,N/A,,Clear,150,2013-03-25 22:53:00
5:53 PM,36.0,12.0,37,30.29,10.0,South,11.5,-,N/A,,Clear,180,2013-03-25 23:53:00
6:53 PM,34.0,8.1,34,30.31,10.0,South,10.4,-,N/A,,Clear,170,2013-03-26 00:53:00
7:53 PM,30.9,9.0,40,30.32,10.0,South,4.6,-,N/A,,Clear,170,2013-03-26 01:53:00
8:53 PM,28.9,10.9,47,30.35,10.0,Calm,Calm,-,N/A,,Clear,0,2013-03-26 02:53:00
9:53 PM,25.0,10.9,55,30.37,10.0,ENE,6.9,-,N/A,,Clear,60,2013-03-26 03:53:00
10:53 PM,24.1,10.9,57,30.38,10.0,ESE,3.5,-,N/A,,Clear,110,2013-03-26 04:53:00
11:53 PM,19.9,10.0,65,30.37,10.0,Calm,Calm,-,N/A,,Clear,0,2013-03-26 05:53:00